User: anonymous
Location: Unspecified
(0.0000°N, 0.0000°E)
Time: 14:24:11
(UTC+00:00)
Language:

Courier 1B Rocket - Orbit

View from above orbital plane
View from above orbital plane
View from above satellite
View from above satellite

Ground track
Ground track

The orbit data is extracted from the following two-line orbital elements,

1 00059U 60013B   14264.22444996  .00000128  00000-0  53592-4 0  9664
2 00059 028.2476 185.5759 0189148 332.7371 026.3353 13.52897374663019
Epoch (UTC): 21 September 2014 05:23:12
Eccentricity: 0.0189148
inclination: 28.2476°
perigee height: 921 km
apogee height: 1202 km
right ascension of ascending node: 185.5759°
argument of perigee: 332.7371°
revolutions per day: 13.52897374
mean anomaly at epoch: 26.3353°
orbit number at epoch: 66301

The dashed part of the orbit path shows where the satellite is in the earth's shadow,  

DLR